📊 Raw Sensor Data

Showing records 52926 to 52950 of 85,320 total

ID Distance (ft) Battery V Battery A Int Temp (°F) Int Humid (%) Ext Temp (°F) Solar V RSSI SNR Time Stamp
32407 12.7 3.82 -5 40 37 42 0.00 -87 8 02/15/2025 01:30 AM
32406 12.7 3.82 -5 41 37 42 0.00 -86 8 02/15/2025 01:15 AM
32405 12.7 3.77 -5 41 37 42 0.00 -87 8 02/15/2025 01:00 AM
32404 12.7 3.78 -5 41 37 42 0.00 -83 7 02/15/2025 12:45 AM
32403 12.7 3.78 -5 41 37 43 0.00 -88 7 02/15/2025 12:30 AM
32402 12.8 3.77 -5 42 37 44 0.10 -87 8 02/15/2025 12:15 AM
32401 12.7 3.76 -5 41 38 44 0.10 -82 7 02/15/2025 12:00 AM
32400 12.7 3.82 -5 41 38 42 0.10 -86 8 02/14/2025 11:45 PM
32399 12.7 3.82 -5 42 38 44 0.00 -86 7 02/14/2025 11:30 PM
32398 12.9 3.77 -5 42 37 44 0.00 -87 7 02/14/2025 11:15 PM
32397 12.8 3.78 -5 42 38 45 0.00 -88 8 02/14/2025 11:00 PM
32396 12.8 3.78 -5 42 38 43 0.00 -86 9 02/14/2025 10:45 PM
32395 12.9 3.77 -5 42 38 44 0.10 -87 7 02/14/2025 10:30 PM
32394 12.8 3.83 -5 43 38 44 0.00 -87 7 02/14/2025 10:15 PM
32393 12.8 3.78 -5 43 38 46 0.00 -86 6 02/14/2025 10:00 PM
32392 12.8 3.78 -5 43 39 45 0.10 -85 8 02/14/2025 09:45 PM
32391 12.8 3.83 -5 43 39 45 0.00 -85 8 02/14/2025 09:30 PM
32390 12.8 3.78 -5 43 39 45 0.10 -82 8 02/14/2025 09:15 PM
32389 12.8 3.78 -5 44 39 46 0.00 -83 8 02/14/2025 09:00 PM
32388 12.8 3.78 -5 46 38 47 0.10 -82 8 02/14/2025 08:45 PM
32387 12.9 3.78 -5 46 38 48 0.00 -81 8 02/14/2025 08:30 PM
32386 12.9 3.78 -5 47 38 49 0.10 -80 8 02/14/2025 08:15 PM
32385 12.8 3.78 -5 47 39 49 0.00 -80 8 02/14/2025 08:00 PM
32384 12.9 3.78 -5 48 39 49 0.10 -80 8 02/14/2025 07:45 PM
32383 12.9 3.83 -5 48 39 50 0.00 -79 8 02/14/2025 07:30 PM